[[{"header":{"parameterUnit":"m.s-1","parameterCategory":1,"la1":30.2991,"la2":30.254,"lo1":-89.0895,"lo2":-89.0444,"dy":0.0017,"dx":0.0017,"nx":28,"ny":28,"refTime":"2023-04-26T15:00:00:Z","depth":0,"parameterNumber":2,"parameterNumberName":"U-component_of_WINDS"},"data":[0,0,0,0,0,0,0,0,0,0,0,0,0,0,0,0,0,0,0,0,0,0,0,0,0,0,0,0,0,0,0,0,0,0,0,0,0,0,0,0,0,0,0,0,0,0,0,0,0,0,0,0,0,0,0,0,0,0,0.1552,0.1553,0,0.1656,0.1657,0.1658,0.1739,0.1739,0.174,0.1741,0.1848,0.185,0.1852,0,0,0,0,0,0,0,0,0,0,0,0,0,0.1423,0.1425,0.1552,0.1553,0.1554,0.1656,0.1657,0.1659,0.1738,0.1739,0.174,0.1741,0.1848,0.185,0.1853,0,0,0,0,0,0,0,0,0,0,0,0,0,0.1498,0.1425,0.1551,0.1606,0.1612,0.1655,0.1657,0.1659,0.1738,0.1739,0.174,0.1742,0.1847,0.185,0.1853,0.185,0,0,0.1863,0.1864,0,0,0,0,0,0,0,0,0.1493,0.1503,0.1597,0.1603,0.1609,0.1685,0.1651,0.1723,0.1738,0.169,0.1741,0.1742,0.1793,0.1801,0.1818,0.1855,0.186,0.1863,0.1865,0.1867,0.1867,0,0,0,0,0,0,0,0.1488,0.1498,0.1593,0.1598,0.1606,0.1626,0.1638,0.1665,0.1734,0.1695,0.1701,0.1712,0.1797,0.1815,0.1821,0.1862,0.1863,0.1866,0.1868,0.1869,0.1902,0.1901,0,0,0,0,0,0,0.1474,0.1494,0.159,0.1596,0.1553,0.1627,0.1641,0.166,0.1734,0.1747,0.1711,0.1715,0.1809,0.1817,0.1825,0.1826,0.1867,0.187,0.1871,0.1903,0.1902,0.19,0,0,0,0,0,0,0.1471,0.1482,0.1586,0.1547,0.1561,0.1628,0.1649,0.1661,0.1679,0.1746,0.1759,0.1716,0.181,0.1821,0.1843,0.1831,0.1871,0.1874,0.1904,0.1902,0.1901,0.1828,0,0,0,0,0,0,0.1467,0.1481,0.148,0.1546,0.1563,0.1601,0.1649,0.1663,0.1684,0.1691,0.1755,0.1766,0.1812,0.1838,0.1846,0.1836,0.1876,0.1906,0.1903,0.1902,0.1832,0.1824,0.1818,0,0,0,0,0,0.1462,0.1455,0.1479,0.1491,0.1564,0.16,0.161,0.1662,0.1683,0.1683,0.1726,0.1764,0.1831,0.184,0.185,0.184,0.1907,0.1904,0.1902,0.1835,0.1826,0.1818,0,0,0,0,0,0,0.1386,0.1465,0.1492,0.1507,0.1546,0.1614,0.1615,0.165,0.1685,0.169,0.1753,0.1767,0.1782,0.1814,0.1822,0.1842,0.1874,0.1873,0.182,0.1812,0.1805,0.1796,0.1879,0,0,0,0,0,0.1371,0.1394,0.1462,0.1468,0.1487,0.1547,0.1565,0.1602,0.1645,0.1662,0.1707,0.1748,0.1779,0.1797,0.1829,0.1838,0.1853,0.1836,0.1829,0.1823,0.1821,0.1828,0.1821,0.1892,0.1893,0.1893,0,0,0.134,0.1386,0.1397,0.1454,0.1489,0.1511,0.1561,0.1583,0.16,0.1666,0.1689,0.1724,0.1774,0.1789,0.1799,0.1817,0.1805,0.182,0.1815,0.1816,0.1825,0.1818,0.1812,0.1891,0.1891,0.1891,0,0,0.1294,0.1332,0.1341,0.1375,0.1427,0.1467,0.1469,0.1532,0.1557,0.1582,0.1632,0.1654,0.1705,0.1739,0.1762,0.173,0.1766,0.1739,0.1701,0.1706,0.1701,0.1696,0.1683,0.1678,0.1737,0.1737,0.1737,0,0.1249,0.1284,0.1341,0.1359,0.1383,0.1444,0.1453,0.1484,0.1544,0.1558,0.1578,0.1643,0.1681,0.1705,0.1697,0.1715,0.1719,0.1731,0.1697,0.1693,0.1689,0.1678,0.1673,0.1733,0.1734,0.1734,0.1734,0,0.1226,0.125,0.1251,0.1306,0.133,0.1344,0.1403,0.142,0.1455,0.1494,0.1518,0.1566,0.1609,0.1618,0.1652,0.1646,0.1655,0.1685,0.1718,0.1678,0.1668,0.1664,0.1728,0.1729,0.173,0.1731,0,0,0.1133,0.122,0.122,0.1245,0.1308,0.1328,0.1345,0.1386,0.1399,0.1439,0.1454,0.1497,0.1524,0.1551,0.159,0.1595,0.1565,0.1625,0.1627,0.1611,0.1561,0.1537,0.1531,0.1591,0.159,0.159,0.1557,0,0.1096,0.1129,0.118,0.1197,0.1219,0.1278,0.1293,0.1333,0.137,0.1395,0.1436,0.1464,0.15,0.1516,0.1524,0.1567,0.1556,0.1571,0.1605,0.1605,0.1588,0.1526,0.1501,0.1467,0.1553,0.1553,0.1552,0,0.1057,0.1092,0.111,0.1171,0.1183,0.1195,0.1237,0.126,0.1307,0.1333,0.1363,0.1406,0.1427,0.1458,0.1488,0.1497,0.1515,0.1538,0.1538,0.1542,0.1575,0.1527,0.1458,0.1452,0.1547,0.1548,0.1548,0,0.0985,0.1038,0.1056,0.1077,0.1148,0.1155,0.1186,0.1234,0.1255,0.1292,0.1307,0.1346,0.1367,0.1396,0.1448,0.1467,0.1472,0.1508,0.1494,0.1493,0.1491,0.149,0.1422,0.1505,0.1505,0.1505,0.1505,0,0.0937,0.0945,0.1025,0.1035,0.1046,0.1106,0.1116,0.1152,0.1194,0.1213,0.1268,0.1284,0.1353,0.1377,0.1419,0.1436,0.1446,0.1468,0.1478,0.1462,0.1459,0.1473,0.1475,0.1504,0.1504,0.1505,0.1505,0,0.0858,0.0912,0.0935,0.1001,0.1018,0.1023,0.108,0.1093,0.1133,0.1156,0.1165,0.1229,0.1261,0.1316,0.1364,0.1392,0.1401,0.1421,0.1385,0.1391,0.1373,0.1373,0.131,0.1305,0.1392,0.1392,0.1391,0,0.0823,0.0831,0.0898,0.0914,0.0942,0.0968,0.099,0.105,0.1071,0.1125,0.1131,0.1167,0.1199,0.1247,0.1298,0.1335,0.1355,0.133,0.136,0.1343,0.1352,0.135,0.1351,0.1322,0.1321,0.132,0.1319,0,0.0754,0.078,0.081,0.0849,0.0873,0.0907,0.0944,0.0954,0.1022,0.1043,0.1076,0.1101,0.115,0.1185,0.1229,0.1261,0.1301,0.131,0.1308,0.129,0.1268,0.1278,0.1364,0.131,0.1311,0.1312,0.1312,0.1313,0.0695,0.0704,0.0753,0.0784,0.0818,0.0851,0.0865,0.0908,0.0937,0.0981,0.1015,0.1045,0.1093,0.1157,0.1186,0.1211,0.123,0.1228,0.1227,0.1225,0.1218,0.1266,0.122,0.122,0.1221,0.1221,0.1221,0,0.0627,0.0661,0.069,0.0739,0.0763,0.08,0.0842,0.086,0.0886,0.0927,0.0957,0.0995,0.103,0.1084,0.1123,0.1132,0.1151,0.114,0.1139,0.1145,0.12,0.1197,0.1124,0.1124,0.1124,0.1124,0.1124,0.1124,0.0594,0.0612,0.0644,0.0679,0.0714,0.0744,0.0765,0.0795,0.0828,0.0868,0.0897,0.0932,0.0978,0.1021,0.1054,0.1069,0.108,0.1063,0.1083,0.1133,0.1142,0.115,0.1147,0.1065,0.1065,0.1027,0.1026,0.1026]},{"header":{"parameterUnit":"m.s-1","parameterCategory":1,"la1":30.2991,"la2":30.254,"lo1":-89.0895,"lo2":-89.0444,"dy":0.0017,"dx":0.0017,"nx":28,"ny":28,"refTime":"2023-04-26T15:00:00:Z","depth":0,"parameterNumber":3,"parameterNumberName":"V-component_of_WINDS"},"data":[0,0,0,0,0,0,0,0,0,0,0,0,0,0,0,0,0,0,0,0,0,0,0,0,0,0,0,0,0,0,0,0,0,0,0,0,0,0,0,0,0,0,0,0,0,0,0,0,0,0,0,0,0,0,0,0,0,0,1.4344,1.4343,0,1.4279,1.4278,1.4277,1.4205,1.4204,1.4203,1.4202,1.4136,1.4135,1.4134,0,0,0,0,0,0,0,0,0,0,0,0,0,1.4408,1.4407,1.4344,1.4343,1.4342,1.4279,1.4278,1.4277,1.4205,1.4204,1.4203,1.4201,1.4136,1.4135,1.4134,0,0,0,0,0,0,0,0,0,0,0,0,0,1.4365,1.4406,1.4344,1.4299,1.4294,1.4279,1.4278,1.4277,1.4205,1.4204,1.4202,1.4201,1.4136,1.4135,1.4134,1.4158,0,0,1.413,1.413,0,0,0,0,0,0,0,0,1.4367,1.4363,1.4306,1.4302,1.4297,1.4248,1.4276,1.4237,1.4206,1.4239,1.4202,1.42,1.4174,1.417,1.4161,1.4155,1.4152,1.413,1.413,1.4129,1.4129,0,0,0,0,0,0,0,1.437,1.4365,1.4318,1.4306,1.43,1.4282,1.4274,1.4268,1.4216,1.4236,1.4231,1.4224,1.4172,1.4163,1.4159,1.4151,1.413,1.4129,1.4129,1.4128,1.4163,1.4164,0,0,0,0,0,0,1.438,1.4368,1.432,1.4316,1.4329,1.4282,1.4273,1.4265,1.4216,1.4207,1.4225,1.4221,1.4165,1.4161,1.4157,1.4182,1.4129,1.4128,1.4127,1.4161,1.4163,1.4165,0,0,0,0,0,0,1.4382,1.4377,1.4323,1.4341,1.4332,1.4283,1.4274,1.4265,1.4256,1.4208,1.4199,1.4226,1.4164,1.4158,1.4158,1.4179,1.4127,1.4126,1.4159,1.4162,1.4164,1.4233,0,0,0,0,0,0,1.4384,1.4378,1.4386,1.4341,1.4332,1.4325,1.4275,1.4265,1.4254,1.4247,1.4206,1.4198,1.4162,1.4161,1.4157,1.4176,1.4125,1.4157,1.416,1.4163,1.4229,1.4237,1.4245,0,0,0,0,0,1.4386,1.4408,1.4387,1.4381,1.4341,1.4327,1.4321,1.428,1.4256,1.4264,1.4234,1.4199,1.4177,1.4161,1.4157,1.4176,1.4156,1.4159,1.4163,1.4225,1.4236,1.4245,0,0,0,0,0,0,1.4456,1.4401,1.4377,1.4385,1.4361,1.4315,1.4323,1.4293,1.4275,1.427,1.422,1.4211,1.4217,1.4196,1.418,1.4197,1.4161,1.4164,1.421,1.422,1.4228,1.4233,1.4124,0,0,0,0,0,1.4473,1.4465,1.4418,1.4429,1.4418,1.4374,1.4366,1.4336,1.4309,1.4299,1.4268,1.4244,1.4232,1.4225,1.4211,1.4226,1.4216,1.4237,1.4245,1.4252,1.4255,1.4261,1.427,1.4177,1.4177,1.4177,0,0,1.4506,1.4475,1.4473,1.4442,1.442,1.4414,1.4365,1.4361,1.4356,1.4298,1.4296,1.4274,1.4243,1.4251,1.4253,1.4234,1.4279,1.4256,1.4262,1.4261,1.4266,1.4275,1.4283,1.4179,1.4179,1.4178,0,0,1.4564,1.454,1.4547,1.4526,1.4494,1.4464,1.4466,1.4424,1.4406,1.4404,1.4361,1.4355,1.4335,1.4315,1.4302,1.4354,1.4322,1.4351,1.4394,1.4401,1.4408,1.4415,1.4433,1.4441,1.4355,1.4355,1.4355,0,1.4609,1.4598,1.4554,1.4552,1.454,1.4488,1.4495,1.4477,1.4442,1.4435,1.4415,1.4389,1.4365,1.4367,1.438,1.4372,1.4373,1.4355,1.4411,1.4417,1.4422,1.4439,1.4446,1.4359,1.4358,1.4358,1.4357,0,1.4656,1.4649,1.4659,1.4626,1.4615,1.4618,1.4575,1.4569,1.4541,1.4514,1.4512,1.4482,1.4461,1.446,1.4432,1.4459,1.4448,1.442,1.4383,1.4435,1.4451,1.4457,1.4364,1.4363,1.4362,1.4361,0,0,1.4754,1.4699,1.4703,1.4688,1.4649,1.4643,1.4644,1.4623,1.462,1.4598,1.4597,1.4582,1.4556,1.4542,1.4512,1.4518,1.4562,1.4489,1.4488,1.4504,1.459,1.4611,1.462,1.4541,1.4542,1.4543,1.4592,0,1.4805,1.4803,1.4764,1.4773,1.4767,1.4718,1.4719,1.4695,1.467,1.4661,1.4633,1.4623,1.459,1.4581,1.4585,1.4556,1.4579,1.4552,1.454,1.454,1.4549,1.4627,1.465,1.4698,1.4598,1.4599,1.46,0,1.4863,1.4845,1.4854,1.4815,1.4811,1.4813,1.4791,1.4783,1.4756,1.4737,1.4723,1.4689,1.4687,1.4654,1.4651,1.4634,1.4627,1.4612,1.4613,1.461,1.4573,1.4626,1.4712,1.472,1.4609,1.4608,1.4608,0,1.4934,1.4912,1.4914,1.4903,1.4858,1.4861,1.4842,1.4813,1.4804,1.4786,1.4779,1.4761,1.4752,1.4739,1.4701,1.468,1.4704,1.4666,1.4688,1.469,1.4695,1.4695,1.4781,1.4692,1.4691,1.4691,1.4691,0,1.4995,1.5002,1.4946,1.4947,1.4954,1.491,1.4918,1.4895,1.487,1.4866,1.4824,1.4821,1.4772,1.4765,1.4735,1.4738,1.4734,1.4719,1.4711,1.4723,1.4725,1.4717,1.4713,1.4693,1.4693,1.4692,1.4692,0,1.5075,1.5037,1.5037,1.4995,1.4985,1.4992,1.4956,1.4956,1.4928,1.4925,1.4921,1.4878,1.4867,1.4829,1.4808,1.4789,1.4801,1.4786,1.481,1.4805,1.4829,1.4827,1.4913,1.4922,1.4827,1.4828,1.4829,0,1.5115,1.512,1.5079,1.5073,1.5057,1.5048,1.5039,1.4996,1.4988,1.4958,1.4962,1.4947,1.4933,1.4918,1.4885,1.487,1.4854,1.4885,1.4851,1.4863,1.4854,1.4854,1.4855,1.4892,1.4893,1.4895,1.4895,0,1.5191,1.5173,1.5161,1.5142,1.5132,1.5116,1.5097,1.5095,1.5047,1.504,1.5028,1.5018,1.4997,1.4984,1.4963,1.4944,1.4912,1.4906,1.4911,1.4922,1.4936,1.4929,1.483,1.4904,1.4904,1.4903,1.4902,1.4902,1.5252,1.5254,1.5226,1.5214,1.5195,1.5179,1.5177,1.515,1.5139,1.5119,1.5095,1.5086,1.506,1.5029,1.5013,1.5006,1.4988,1.4994,1.4996,1.4998,1.5003,1.4938,1.5002,1.5002,1.5001,1.5001,1.5001,0,1.5326,1.5306,1.5295,1.527,1.5261,1.5232,1.521,1.5205,1.5197,1.5176,1.5163,1.515,1.5137,1.5104,1.5088,1.5089,1.5074,1.5086,1.5085,1.5082,1.502,1.5018,1.5098,1.5098,1.5098,1.5098,1.5098,1.5098,1.5363,1.5365,1.5344,1.5336,1.5316,1.5307,1.5297,1.5282,1.5264,1.5252,1.5241,1.5219,1.5193,1.5175,1.5162,1.5153,1.5149,1.5166,1.5152,1.5095,1.5086,1.5077,1.5075,1.5166,1.5166,1.5214,1.5214,1.5215]}]]